TimeCDT,TemperatureF,Dew PointF,Humidity,Sea Level PressureIn,VisibilityMPH,Wind Direction,Wind SpeedMPH,Gust SpeedMPH,PrecipitationIn,Events,Conditions,WindDirDegrees,DateUTC
12:53 AM,53.1,32.0,45,30.02,10.0,NNE,9.2,-,N/A,,Overcast,30,2012-04-04 05:53:00
1:53 AM,52.0,30.9,45,30.01,10.0,NNE,10.4,-,N/A,,Overcast,20,2012-04-04 06:53:00
2:53 AM,51.1,30.0,44,30.00,10.0,NNE,8.1,-,N/A,,Overcast,30,2012-04-04 07:53:00
3:53 AM,50.0,28.4,43,29.95,10.0,NE,9.2,-,N/A,,Clear,50,2012-04-04 08:53:00
4:53 AM,50.0,28.4,43,29.93,10.0,ENE,10.4,-,N/A,,Mostly Cloudy,60,2012-04-04 09:53:00
5:53 AM,46.9,30.0,52,29.95,10.0,NE,5.8,-,N/A,,Scattered Clouds,40,2012-04-04 10:53:00
6:53 AM,45.0,30.9,58,29.96,10.0,North,8.1,-,N/A,,Clear,10,2012-04-04 11:53:00
7:53 AM,46.0,30.9,56,29.97,10.0,North,8.1,-,N/A,,Mostly Cloudy,360,2012-04-04 12:53:00
8:53 AM,46.9,30.9,54,29.98,10.0,North,9.2,-,N/A,,Overcast,10,2012-04-04 13:53:00
9:39 AM,46.4,30.2,53,29.96,10.0,North,6.9,-,N/A,,Overcast,10,2012-04-04 14:39:00
9:53 AM,48.0,30.9,52,29.97,10.0,NNE,8.1,-,N/A,,Overcast,20,2012-04-04 14:53:00
10:53 AM,48.0,32.0,54,29.97,10.0,North,8.1,-,N/A,,Overcast,10,2012-04-04 15:53:00
11:53 AM,48.9,36.0,61,29.97,10.0,NNE,8.1,-,N/A,,Overcast,30,2012-04-04 16:53:00
12:53 PM,48.0,39.9,74,29.96,10.0,NNE,4.6,-,N/A,,Overcast,20,2012-04-04 17:53:00
1:28 PM,46.4,41.0,81,29.93,10.0,NNE,10.4,-,0.00,Rain,Light Rain,20,2012-04-04 18:28:00
1:53 PM,46.0,42.1,86,29.94,5.0,NNE,8.1,-,0.01,Rain,Rain,20,2012-04-04 18:53:00
2:53 PM,46.9,44.1,90,29.91,10.0,NNE,8.1,-,0.03,,Overcast,30,2012-04-04 19:53:00
3:53 PM,48.9,44.1,83,29.89,10.0,North,6.9,-,N/A,,Overcast,10,2012-04-04 20:53:00
4:53 PM,50.0,44.1,80,29.87,9.0,North,6.9,-,0.00,Rain,Light Rain,10,2012-04-04 21:53:00
5:53 PM,51.1,44.1,77,29.87,10.0,NNE,3.5,-,0.02,Rain,Light Rain,20,2012-04-04 22:53:00
6:53 PM,51.1,46.9,86,29.87,10.0,NNW,3.5,-,0.02,Rain,Light Rain,330,2012-04-04 23:53:00
7:53 PM,50.0,46.0,86,29.87,10.0,NNW,4.6,-,0.02,,Overcast,330,2012-04-05 00:53:00
8:53 PM,50.0,46.0,86,29.88,10.0,Variable,3.5,-,N/A,,Overcast,0,2012-04-05 01:53:00
9:53 PM,50.0,44.1,80,29.88,10.0,NNW,4.6,-,N/A,,Overcast,330,2012-04-05 02:53:00
10:53 PM,50.0,43.0,77,29.88,10.0,North,3.5,-,N/A,,Overcast,350,2012-04-05 03:53:00
11:53 PM,48.9,42.1,77,29.88,10.0,NNW,3.5,-,N/A,,Overcast,340,2012-04-05 04:53:00